Regional Weather Roundup
Issued by NWS

Home | Current Version | Previous Version | Text Only | Print | Product List | Glossary On
Versions: 1 2 3 4 5 6 7 8 9 10 11 12 13 14 15 16 17 18 19 20 21 22 23 24 25 26 27 28 29 30 31 32 33 34 35 36 37 38 39 40 41 42 43 44 45 46 47 48 49 50
000
ASUS43 KMPX 211501
RWRMN
WEATHER ROUNDUP FOR MINNESOTA
NATIONAL WEATHER SERVICE TWIN CITIES/CHANHASSEN MN
1000 AM CDT SUN SEP 21 2014


NOTE: "FAIR" INDICATES FEW OR NO CLOUDS BELOW 12,000 FEET WITH NO
SIGNIFICANT WEATHER AND/OR OBSTRUCTIONS TO VISIBILITY. N/A MEANS
CURRENT SKY AND/OR WEATHER CONDITIONS ARE NOT AVAILABLE.

MNZ060>063-068>070-211600-
   Twin Cities Metro

CITY           SKY/WX    TMP DP  RH WIND       PRES   REMARKS
TWIN CITIES    CLOUDY    55  47  74 NW17      30.11R
ST PAUL        PTSUNNY   57  49  74 NW17      30.10R
CRYSTAL        PTSUNNY   57  47  69 NW15      30.11R
BLAINE         CLOUDY    57  52  82 NW10      30.10R
LAKEVILLE      PTSUNNY   54  48  82 N12G20    30.10R
EDEN PRAIRIE   PTSUNNY   56  49  77 NW13      30.10R
SOUTH ST PAUL  PTSUNNY   57  48  72 N13G21    30.10R
LAKE ELMO      CLOUDY    55  50  82 N15       30.09R
$$
MNZ001>005-007-008-013>017-022>024-027-028-211600-
   Northwest Minnesota

CITY           SKY/WX    TMP DP  RH WIND       PRES   REMARKS
BEMIDJI        PTSUNNY   54  50  86 N9        30.15R
HALLOCK        CLOUDY    54  52  94 N9        30.19R
ROSEAU         CLOUDY    54  48  82 W6        30.17R
WARROAD        PTSUNNY   55  52  88 NW5       30.17R
THIEF RVR FALL CLOUDY    52  48  87 NW12      30.18R
CROOKSTON      CLOUDY    52  52 100 N8        30.20R
FOSSTON        CLOUDY    52  50  93 NW9       30.19R
DETROIT LAKES  CLOUDY    52  50  93 N13G18    30.19R
MOORHEAD       CLOUDY    54  54 100 N12       30.21R
PARK RAPIDS    CLOUDY    54  49  83 NW15      30.15R
MAHNOMEN       CLOUDY    51  50  95 NW8       30.17R
$$
MNZ006-009>011-018-025>026-211600-
   North Central Minnesota

CITY           SKY/WX    TMP DP  RH WIND       PRES   REMARKS
BAUDETTE       MOSUNNY   54  49  83 N8        30.14R
FLAG ISLAND    CLOUDY    52  48  87 N3        30.14R
INTL FALLS     SUNNY     52  44  74 NE7       30.13R
WASKISH        CLOUDY    52  52 100 CALM      30.15R
BIG FORK       CLOUDY    52  48  87 N7        30.13R
LONGVILLE      SUNNY     55  48  76 N5        30.12R
GRAND RAPIDS   CLOUDY    52  45  76 N13       30.12R
CRANE LAKE     MOSUNNY   46  43  87 N6        30.13R
ORR            MOSUNNY   52  43  71 N6        30.09R
COOK           SUNNY     50  45  81 N7        30.10R
WALKER         PTSUNNY   54  48  81 N6        30.14R
$$
MNZ012-019>021-037-211600-
   Northeast Minnesota

CITY           SKY/WX    TMP DP  RH WIND       PRES   REMARKS
DULUTH         PTSUNNY   55  45  68 N17G24    30.06R
ELY            CLOUDY    48  39  71 N6        30.08R
HIBBING        PTSUNNY   54  46  74 N14G23    30.09R
EVELETH        SUNNY     52  45  76 N8        30.09R
DULUTH HARBOR  MOSUNNY   57  48  72 N12       30.07R
TWO HARBORS    MOSUNNY   54  43  66 N7        30.05R
SILVER BAY     MOSUNNY   52  45  76 N8        30.04R
GRAND MARAIS     N/A     49  39  68 E5        30.06R
G MARAIS ARPRT MOSUNNY   43  34  70 NW12G22   30.04R
$$
MNZ029>031-032-039>041-046>048-054>057-064-211600-
   West Central Minnesota

CITY           SKY/WX    TMP DP  RH WIND       PRES   REMARKS
FERGUS FALLS   CLOUDY    54  50  87 N9        30.20R
WHEATON        MOSUNNY   55  48  76 NW13      30.22R
MORRIS         SUNNY     54  52  94 N13       30.18R
ALEXANDRIA     CLOUDY    53  50  89 NW12      30.18R
ELBOW LAKE     CLOUDY    52  49  89 NW14      30.18R
WADENA         CLOUDY    54  50  87 NW9       30.16R
GLENWOOD       PTSUNNY   54  50  87 NW13      30.17R
APPLETON       MOSUNNY   59  50  72 NW13      30.18R
BENSON         CLOUDY    55  50  82 N12G20    30.18R
ORTONVILLE     SUNNY     55  48  76 N12       30.20R
MADISON        SUNNY     61  52  72 NW12      30.19R
WILLMAR        FAIR      57  52  82 NW12      30.17R
$$
MNZ033>034-036-042>043-049>051-058-059-211600-
   Central Minnesota

CITY           SKY/WX    TMP DP  RH WIND       PRES   REMARKS
ST CLOUD       PTSUNNY   58  48  69 NW12      30.13R
SAUK CENTRE    CLOUDY    55  49  83 NW15      30.16R
PAYNESVILLE    CLOUDY    52  49  90 W9        30.16R
AITKIN         CLOUDY    55  48  76 NW6       30.11R
PINE RIVER     MOSUNNY   55  48  76 N10       30.16R
BRAINERD       MOSUNNY   54  47  77 N12       30.14R
STAPLES        CLOUDY    54  50  87 NW8       30.15R
LONG PRAIRIE   CLOUDY    52  50  93 NW10      30.15R
LITTLE FALLS   MOSUNNY   55  46  71 NW8       30.14R
LITCHFIELD     PTSUNNY   57  54  88 NW13      30.15R
BUFFALO        PTSUNNY   56  47  71 N13       30.14R
MAPLE LAKE     CLOUDY    56  50  80 NW10      30.15R
$$
MNZ037-044-045-052-053-211600-
   East Central Minnesota

CITY           SKY/WX    TMP DP  RH WIND       PRES   REMARKS
PRINCETON      PTSUNNY   54  48  82 NW8       30.12R
MORA           PTSUNNY   55  46  71 N12G22    30.12R
CAMBRIDGE      MOSUNNY   57  46  67 NW8       30.09R
RUSH CITY      MOSUNNY   57  49  75 NW9       30.09R
MOOSE LAKE     PTSUNNY   54  46  76 CALM      30.07R
HINCKLEY       FAIR      55  50  82 N14       30.09R
CLOQUET        CLOUDY    54  46  76 NW8       30.08R
MCGREGOR       CLOUDY    52  46  82 NW7       30.13R
$$
MNZ071>073-080-081-089-090-097-098-211600-
   Southwest Minnesota

CITY           SKY/WX    TMP DP  RH WIND       PRES   REMARKS
MONTEVIDEO     MOSUNNY   59  52  77 N13G18    30.19R
GRANITE FALLS  SUNNY     56  50  79 NW13G18   30.19R
CANBY          SUNNY     58  50  75 NW12G17   30.22R
MARSHALL       MOSUNNY   57  46  67 N15G22    30.18R
REDWOOD FALLS  MOSUNNY   57  51  80 NW12      30.16R
OLIVIA         PTSUNNY   57  52  82 NW12      30.15R
PIPESTONE      SUNNY     55  48  76 N12       30.20R
WINDOM         SUNNY     55  48  76 NW15      30.17R
WORTHINGTON    SUNNY     57  46  67 NW18G25   30.19R
JACKSON        MOSUNNY   57  46  67 N13G22    30.17R
TRACY          SUNNY     58  49  71 N16       30.19R
SLAYTON        MOSUNNY   57  48  73 NW12G18   30.20R
$$
MNZ065>067-074>077-082>085-091>093-211600-
   South Central Minnesota

CITY           SKY/WX    TMP DP  RH WIND       PRES   REMARKS
MANKATO        PTSUNNY   57  46  67 N17G26    30.13R
NEW ULM        SUNNY     57  52  82 NW13      30.14R
ST JAMES       MOSUNNY   57  48  72 NW15G22   30.16R
FAIRMONT       MOSUNNY   59  45  58 NW14G21   30.14R
GLENCOE        CLOUDY    59  48  66 NW16      30.13R
FARIBAULT      CLOUDY    57  46  67 NW12      30.11R
OWATONNA       CLOUDY    55  48  76 NW14G21   30.11R
WASECA         PTSUNNY   54  45  71 NW16G23   30.13R
ALBERT LEA     CLOUDY    55  50  82 N12G20    30.11R
$$
MNZ078>079-086>088-094>096-211600-
   Southeast Minnesota

CITY           SKY/WX    TMP DP  RH WIND       PRES   REMARKS
ROCHESTER      CLOUDY    54  48  80 N17G26    30.07R
RED WING       PTSUNNY   57  48  72 N9G18     30.06R
STANTON        CLOUDY    58  49  72 N16G22    30.08R
DODGE CENTER   CLOUDY    54  50  87 N13G20    30.08R
WINONA         CLOUDY    55  50  82 NW13      30.02R
AUSTIN         CLOUDY    54  48  82 N14G23    30.08R
PRESTON        CLOUDY    53  52  96 N13G24    30.05R
$$
ABBREVIATIONS USED IN REMARKS
   TC - TEMPERATURES IN CELSIUS
  WCI - WIND CHILL INDEX
   HX - HEAT INDEX
  VSB - VISIBILITY
$$


USA.gov is the U.S. government's official web portal to all federal, state and local government web resources and services.